Year,Month,Day,Hour,Minute,Value (Times are PST for temperature in C)
2019,03,19,10,05,14.50
2019,03,19,10,06,14.50
2019,03,19,10,07,14.50
2019,03,19,10,08,14.50
2019,03,19,10,09,14.60
2019,03,19,10,10,14.60
2019,03,19,10,11,14.60
2019,03,19,10,12,14.60
2019,03,19,10,13,14.50
2019,03,19,10,14,14.50
2019,03,19,10,15,14.40
2019,03,19,10,16,14.40
2019,03,19,10,17,14.40
2019,03,19,10,18,14.50
2019,03,19,10,19,14.50
2019,03,19,10,20,14.60
2019,03,19,10,21,14.60
2019,03,19,10,22,14.70
2019,03,19,10,23,14.80
2019,03,19,10,24,14.80
2019,03,19,10,25,14.80
2019,03,19,10,26,14.80
2019,03,19,10,27,14.90
2019,03,19,10,28,15.00
2019,03,19,10,29,15.10
2019,03,19,10,30,15.20
2019,03,19,10,31,15.30
2019,03,19,10,32,15.40
2019,03,19,10,33,15.60
2019,03,19,10,34,15.70
2019,03,19,10,35,15.80
2019,03,19,10,36,16.00
2019,03,19,10,37,16.10
2019,03,19,10,38,16.30
2019,03,19,10,39,16.50
2019,03,19,10,40,16.60
2019,03,19,10,41,16.70
2019,03,19,10,42,16.80
2019,03,19,10,43,16.80
2019,03,19,10,44,16.80
2019,03,19,10,45,16.80
2019,03,19,10,46,17.00
2019,03,19,10,47,17.10
2019,03,19,10,48,17.30
2019,03,19,10,49,17.40
2019,03,19,10,50,17.30
2019,03,19,10,51,17.20
2019,03,19,10,52,17.10
2019,03,19,10,53,17.00
2019,03,19,10,54,16.80
2019,03,19,10,55,16.70
2019,03,19,10,56,16.60
2019,03,19,10,57,16.50
2019,03,19,10,58,16.60
2019,03,19,10,59,16.70
2019,03,19,11,00,16.80
2019,03,19,11,01,16.80
2019,03,19,11,02,16.90
2019,03,19,11,03,16.90
2019,03,19,11,04,17.00
2019,03,19,11,05,17.10
2019,03,19,11,06,17.10
2019,03,19,11,07,17.10
2019,03,19,11,08,17.10
2019,03,19,11,09,17.10
2019,03,19,11,10,17.20
2019,03,19,11,11,17.20
2019,03,19,11,12,17.30
2019,03,19,11,13,17.30
2019,03,19,11,14,17.40
2019,03,19,11,15,17.40
2019,03,19,11,16,17.50
2019,03,19,11,17,17.50
2019,03,19,11,18,17.60
2019,03,19,11,19,17.60
2019,03,19,11,20,17.70
2019,03,19,11,21,17.80
2019,03,19,11,22,17.80
2019,03,19,11,23,17.90
2019,03,19,11,24,17.90
2019,03,19,11,25,18.00
2019,03,19,11,26,18.10
2019,03,19,11,27,18.30
2019,03,19,11,28,18.50
2019,03,19,11,29,18.60
2019,03,19,11,30,18.70
2019,03,19,11,31,18.70
2019,03,19,11,32,18.70
2019,03,19,11,33,18.80
2019,03,19,11,34,18.80
2019,03,19,11,35,18.80
2019,03,19,11,36,18.80
2019,03,19,11,37,18.90
2019,03,19,11,38,18.90
2019,03,19,11,39,19.00
2019,03,19,11,40,19.10
2019,03,19,11,41,19.20
2019,03,19,11,42,19.20
2019,03,19,11,43,19.30
2019,03,19,11,44,19.30
2019,03,19,11,45,19.40
2019,03,19,11,46,19.40
2019,03,19,11,47,19.40
2019,03,19,11,48,19.40
2019,03,19,11,49,19.40
2019,03,19,11,50,19.40
2019,03,19,11,51,19.40
2019,03,19,11,52,19.30
2019,03,19,11,53,19.30
2019,03,19,11,54,19.30
2019,03,19,11,55,19.30
2019,03,19,11,56,19.40
2019,03,19,11,57,19.40
2019,03,19,11,58,19.50
2019,03,19,11,59,19.60
2019,03,19,12,00,19.60
2019,03,19,12,01,19.70
2019,03,19,12,02,19.70
2019,03,19,12,03,19.70
2019,03,19,12,04,19.70
2019,03,19,12,05,19.80
2019,03,19,12,06,19.80
2019,03,19,12,07,19.80
2019,03,19,12,08,19.90
2019,03,19,12,09,19.90
2019,03,19,12,10,20.00
2019,03,19,12,11,20.10
2019,03,19,12,12,20.20
2019,03,19,12,13,20.20
2019,03,19,12,14,20.30
2019,03,19,12,15,20.30
2019,03,19,12,16,20.30
2019,03,19,12,17,20.30
2019,03,19,12,18,20.30
2019,03,19,12,19,20.40
2019,03,19,12,20,20.40
2019,03,19,12,21,20.40
2019,03,19,12,22,20.50
2019,03,19,12,23,20.60
2019,03,19,12,24,20.70
2019,03,19,12,25,20.70
2019,03,19,12,26,20.80
2019,03,19,12,27,20.80
2019,03,19,12,28,20.80
2019,03,19,12,29,20.90
2019,03,19,12,30,20.90
2019,03,19,12,31,21.00
2019,03,19,12,32,21.10
2019,03,19,12,33,21.20
2019,03,19,12,34,21.30
2019,03,19,12,35,21.40
2019,03,19,12,36,21.50
2019,03,19,12,37,21.60
2019,03,19,12,38,21.70
2019,03,19,12,39,21.80
2019,03,19,12,40,21.90
2019,03,19,12,41,21.90
2019,03,19,12,42,22.00
2019,03,19,12,43,22.10
2019,03,19,12,44,22.20
2019,03,19,12,45,22.20
2019,03,19,12,46,22.30
2019,03,19,12,47,22.30
2019,03,19,12,48,22.30
2019,03,19,12,49,22.40
2019,03,19,12,50,22.40
2019,03,19,12,51,22.50
2019,03,19,12,52,22.60
2019,03,19,12,53,22.60
2019,03,19,12,54,22.70
2019,03,19,12,55,22.70
2019,03,19,12,56,22.80
2019,03,19,12,57,22.80
2019,03,19,12,58,22.90
2019,03,19,12,59,22.90
2019,03,19,13,00,23.00
2019,03,19,13,01,23.00
2019,03,19,13,02,23.00
2019,03,19,13,03,22.90
2019,03,19,13,04,22.90
2019,03,19,13,05,22.80
2019,03,19,13,06,22.80
2019,03,19,13,07,22.80
2019,03,19,13,08,22.80
2019,03,19,13,09,22.80
2019,03,19,13,10,22.80
2019,03,19,13,11,22.80
2019,03,19,13,12,22.80
2019,03,19,13,13,22.80
2019,03,19,13,14,22.80
2019,03,19,13,15,22.80
2019,03,19,13,16,22.80
2019,03,19,13,17,22.80
2019,03,19,13,18,22.80
2019,03,19,13,19,22.80
2019,03,19,13,20,22.80
2019,03,19,13,21,22.70
2019,03,19,13,22,22.70
2019,03,19,13,23,22.70
2019,03,19,13,24,22.70
2019,03,19,13,25,22.80
2019,03,19,13,26,22.80
2019,03,19,13,27,22.80
2019,03,19,13,28,22.90
2019,03,19,13,29,22.90
2019,03,19,13,30,22.90
2019,03,19,13,31,22.90
2019,03,19,13,32,22.90
2019,03,19,13,33,22.90
2019,03,19,13,34,22.90
2019,03,19,13,35,22.90
2019,03,19,13,36,22.90
2019,03,19,13,37,22.80
2019,03,19,13,38,22.60
2019,03,19,13,39,22.50
2019,03,19,13,40,22.50
2019,03,19,13,41,22.50
2019,03,19,13,42,22.60
2019,03,19,13,43,22.70
2019,03,19,13,44,22.70
2019,03,19,13,45,22.50
2019,03,19,13,46,22.30
2019,03,19,13,47,22.00
2019,03,19,13,48,21.80
2019,03,19,13,49,21.50
2019,03,19,13,50,21.30
2019,03,19,13,51,21.20
2019,03,19,13,52,21.10
2019,03,19,13,53,20.90
2019,03,19,13,54,20.80
2019,03,19,13,55,20.70
2019,03,19,13,56,20.60
2019,03,19,13,57,20.60
2019,03,19,13,58,20.50
2019,03,19,13,59,20.40
2019,03,19,14,00,20.30
2019,03,19,14,01,20.30
2019,03,19,14,02,20.20
2019,03,19,14,03,20.10
2019,03,19,14,04,20.00
2019,03,19,14,05,20.00
2019,03,19,14,06,19.90
2019,03,19,14,07,19.90
2019,03,19,14,08,19.90
2019,03,19,14,09,19.90
2019,03,19,14,10,20.00
2019,03,19,14,11,20.00
2019,03,19,14,12,20.10
2019,03,19,14,13,20.20
2019,03,19,14,14,20.30
2019,03,19,14,15,20.30
2019,03,19,14,16,20.40
2019,03,19,14,17,20.50
2019,03,19,14,18,20.60
2019,03,19,14,19,20.80
2019,03,19,14,20,20.80
2019,03,19,14,21,20.80
2019,03,19,14,22,20.80
2019,03,19,14,23,20.80
2019,03,19,14,24,20.80
2019,03,19,14,25,20.90
2019,03,19,14,26,20.90
2019,03,19,14,27,20.90
2019,03,19,14,28,20.90
2019,03,19,14,29,20.90
2019,03,19,14,30,20.90
2019,03,19,14,31,20.90
2019,03,19,14,32,20.90
2019,03,19,14,33,20.90
2019,03,19,14,34,20.90
2019,03,19,14,35,21.00
2019,03,19,14,36,20.90
2019,03,19,14,37,21.00
2019,03,19,14,38,21.00
2019,03,19,14,39,21.00
2019,03,19,14,40,20.90
2019,03,19,14,41,20.90
2019,03,19,14,42,20.90
2019,03,19,14,43,21.00
2019,03,19,14,44,21.00
2019,03,19,14,45,21.10
2019,03,19,14,46,21.20
2019,03,19,14,47,21.30
2019,03,19,14,48,21.40
2019,03,19,14,49,21.40
2019,03,19,14,50,21.50
2019,03,19,14,51,21.60
2019,03,19,14,52,21.70
2019,03,19,14,53,21.80
2019,03,19,14,54,21.80
2019,03,19,14,55,21.80
2019,03,19,14,56,21.80
2019,03,19,14,57,21.80
2019,03,19,14,58,21.90
2019,03,19,14,59,21.90
2019,03,19,15,00,21.90
2019,03,19,15,01,21.90
2019,03,19,15,02,21.90
2019,03,19,15,03,21.90
2019,03,19,15,04,21.80
2019,03,19,15,05,21.80
2019,03,19,15,06,21.70
2019,03,19,15,07,21.60
2019,03,19,15,08,21.60
2019,03,19,15,09,21.50
2019,03,19,15,10,21.50
2019,03,19,15,11,21.50
2019,03,19,15,12,21.60
2019,03,19,15,13,21.60
2019,03,19,15,14,21.60
2019,03,19,15,15,21.70
2019,03,19,15,16,21.80
2019,03,19,15,17,21.80
2019,03,19,15,18,21.80
2019,03,19,15,19,21.90
2019,03,19,15,20,22.00
2019,03,19,15,21,22.10
2019,03,19,15,22,22.20
2019,03,19,15,23,22.30
2019,03,19,15,24,22.40
2019,03,19,15,25,22.40
2019,03,19,15,26,22.50
2019,03,19,15,27,22.50
2019,03,19,15,28,22.50
2019,03,19,15,29,22.60
2019,03,19,15,30,22.60
2019,03,19,15,31,22.70
2019,03,19,15,32,22.70
2019,03,19,15,33,22.80
2019,03,19,15,34,22.90
2019,03,19,15,35,22.90
2019,03,19,15,36,22.90
2019,03,19,15,37,22.90
2019,03,19,15,38,22.90
2019,03,19,15,39,22.90
2019,03,19,15,40,23.00
2019,03,19,15,41,23.00
2019,03,19,15,42,23.10
2019,03,19,15,43,23.10
2019,03,19,15,44,23.20
2019,03,19,15,45,23.30
2019,03,19,15,46,23.40
2019,03,19,15,47,23.50
2019,03,19,15,48,23.50
2019,03,19,15,49,23.60
2019,03,19,15,50,23.60
2019,03,19,15,51,23.70
2019,03,19,15,52,23.80
2019,03,19,15,53,23.80
2019,03,19,15,54,23.80
2019,03,19,15,55,23.90
2019,03,19,15,56,23.90
2019,03,19,15,57,23.90
2019,03,19,15,58,23.90
2019,03,19,15,59,23.80
2019,03,19,16,00,23.70
2019,03,19,16,01,23.70
2019,03,19,16,02,23.70
2019,03,19,16,03,23.70
2019,03,19,16,04,23.70
2019,03,19,16,05,23.70
2019,03,19,16,06,23.70
2019,03,19,16,07,23.70
2019,03,19,16,08,23.70
2019,03,19,16,09,23.80
2019,03,19,16,10,23.80
2019,03,19,16,11,23.80
2019,03,19,16,12,23.90
2019,03,19,16,13,23.90
2019,03,19,16,14,23.90
2019,03,19,16,15,23.90
2019,03,19,16,16,24.00
2019,03,19,16,17,24.00
2019,03,19,16,18,24.00
2019,03,19,16,19,24.00
2019,03,19,16,20,24.10
2019,03,19,16,21,24.20
2019,03,19,16,22,24.20
2019,03,19,16,23,24.30
2019,03,19,16,24,24.30
2019,03,19,16,25,24.30
2019,03,19,16,26,24.30
2019,03,19,16,27,24.30
2019,03,19,16,28,24.30
2019,03,19,16,29,24.40
2019,03,19,16,30,24.40
2019,03,19,16,31,24.50
2019,03,19,16,32,24.50
2019,03,19,16,33,24.60
2019,03,19,16,34,24.60
2019,03,19,16,35,24.60
2019,03,19,16,36,24.70
2019,03,19,16,37,24.70
2019,03,19,16,38,24.70
2019,03,19,16,39,24.70
2019,03,19,16,40,24.70
2019,03,19,16,41,24.70
2019,03,19,16,42,24.70
2019,03,19,16,43,24.70
2019,03,19,16,44,24.60
2019,03,19,16,45,24.60
2019,03,19,16,46,24.60
2019,03,19,16,47,24.60
2019,03,19,16,48,24.60
2019,03,19,16,49,24.60
2019,03,19,16,50,24.60
2019,03,19,16,51,24.50
2019,03,19,16,52,24.50
2019,03,19,16,53,24.50
2019,03,19,16,54,24.40
2019,03,19,16,55,24.40
2019,03,19,16,56,24.40
2019,03,19,16,57,24.30
2019,03,19,16,58,24.30
2019,03,19,16,59,24.20
2019,03,19,17,00,24.20
2019,03,19,17,01,24.20
2019,03,19,17,02,24.20
2019,03,19,17,03,24.20
2019,03,19,17,04,24.20
2019,03,19,17,05,24.10
2019,03,19,17,06,24.10
2019,03,19,17,07,24.10
2019,03,19,17,08,24.10
2019,03,19,17,09,24.10
2019,03,19,17,10,24.10
2019,03,19,17,11,24.10
2019,03,19,17,12,24.10
2019,03,19,17,13,24.10
2019,03,19,17,14,24.20
2019,03,19,17,15,24.20
2019,03,19,17,16,24.20
2019,03,19,17,17,24.20
2019,03,19,17,18,24.20
2019,03,19,17,19,24.20
2019,03,19,17,20,24.20
2019,03,19,17,21,24.20
2019,03,19,17,22,24.20
2019,03,19,17,23,24.20
2019,03,19,17,24,24.30
2019,03,19,17,25,24.30
2019,03,19,17,26,24.30
2019,03,19,17,27,24.30
2019,03,19,17,28,24.30
2019,03,19,17,29,24.30
2019,03,19,17,30,24.30
2019,03,19,17,31,24.30
2019,03,19,17,32,24.30
2019,03,19,17,33,24.30
2019,03,19,17,34,24.30
2019,03,19,17,35,24.30
2019,03,19,17,36,24.30
2019,03,19,17,37,24.30
2019,03,19,17,38,24.40
2019,03,19,17,39,24.40
2019,03,19,17,40,24.30
2019,03,19,17,41,24.30
2019,03,19,17,42,24.40
2019,03,19,17,43,24.40
2019,03,19,17,44,24.30
2019,03,19,17,45,24.30
2019,03,19,17,46,24.30
2019,03,19,17,47,24.20
2019,03,19,17,48,24.20
2019,03,19,17,49,24.20
2019,03,19,17,50,24.20
2019,03,19,17,51,24.20
2019,03,19,17,52,24.20
2019,03,19,17,53,24.20
2019,03,19,17,54,24.30
2019,03,19,17,55,24.30
2019,03,19,17,56,24.30
2019,03,19,17,57,24.30
2019,03,19,17,58,24.30
2019,03,19,17,59,24.30
2019,03,19,18,00,24.30
2019,03,19,18,01,24.30
2019,03,19,18,02,24.30
2019,03,19,18,03,24.30
2019,03,19,18,04,24.30
2019,03,19,18,05,24.40
2019,03,19,18,06,24.40
2019,03,19,18,07,24.40
2019,03,19,18,08,24.50
2019,03,19,18,09,24.50
2019,03,19,18,10,24.50
2019,03,19,18,11,24.50
2019,03,19,18,12,24.60
2019,03,19,18,13,24.60
2019,03,19,18,14,24.70
2019,03,19,18,15,24.70
2019,03,19,18,16,24.60
2019,03,19,18,17,24.40
2019,03,19,18,18,24.20
2019,03,19,18,19,24.10
2019,03,19,18,20,23.80
2019,03,19,18,21,23.70
2019,03,19,18,22,23.50
2019,03,19,18,23,23.30
2019,03,19,18,24,23.10
2019,03,19,18,25,23.00
2019,03,19,18,26,22.80
2019,03,19,18,27,22.70
2019,03,19,18,28,22.70
2019,03,19,18,29,22.60
2019,03,19,18,30,22.60
2019,03,19,18,31,22.50
2019,03,19,18,32,22.40
2019,03,19,18,33,22.30
2019,03,19,18,34,22.30
2019,03,19,18,35,22.20
2019,03,19,18,36,22.20
2019,03,19,18,37,22.10
2019,03,19,18,38,22.10
2019,03,19,18,39,22.10
2019,03,19,18,40,22.10
2019,03,19,18,41,22.10
2019,03,19,18,42,22.10
2019,03,19,18,43,22.10
2019,03,19,18,44,22.00
2019,03,19,18,45,22.00
2019,03,19,18,46,22.00
2019,03,19,18,47,22.00
2019,03,19,18,48,21.90
2019,03,19,18,49,21.90
2019,03,19,18,50,21.90
2019,03,19,18,51,21.80
2019,03,19,18,52,21.80
2019,03,19,18,53,21.70
2019,03,19,18,54,21.60
2019,03,19,18,55,21.60
2019,03,19,18,56,21.50
2019,03,19,18,57,21.50
2019,03,19,18,58,21.50
2019,03,19,18,59,21.50
2019,03,19,19,00,21.50
2019,03,19,19,01,21.50
2019,03,19,19,02,21.40
2019,03,19,19,03,21.40
2019,03,19,19,04,21.30
2019,03,19,19,05,21.20
2019,03,19,19,06,21.10
2019,03,19,19,07,21.10
2019,03,19,19,08,20.90
2019,03,19,19,09,20.80
2019,03,19,19,10,20.70
2019,03,19,19,11,20.50
2019,03,19,19,12,20.40
2019,03,19,19,13,20.20
2019,03,19,19,14,20.10
2019,03,19,19,15,20.00
2019,03,19,19,16,20.00
2019,03,19,19,17,19.90
2019,03,19,19,18,19.80
2019,03,19,19,19,19.80
2019,03,19,19,20,19.60
2019,03,19,19,21,19.50
2019,03,19,19,22,19.30
2019,03,19,19,23,19.20
2019,03,19,19,24,19.10
2019,03,19,19,25,19.00
2019,03,19,19,26,19.00
2019,03,19,19,27,18.90
2019,03,19,19,28,18.70
2019,03,19,19,29,18.60
2019,03,19,19,30,18.40
2019,03,19,19,31,18.30
2019,03,19,19,32,18.20
2019,03,19,19,33,18.20
2019,03,19,19,34,18.10
2019,03,19,19,35,18.00
2019,03,19,19,36,17.90
2019,03,19,19,37,17.80
2019,03,19,19,38,17.80
2019,03,19,19,39,17.70
2019,03,19,19,40,17.70
2019,03,19,19,41,17.60
2019,03,19,19,42,17.50
2019,03,19,19,43,17.40
2019,03,19,19,44,17.30
2019,03,19,19,45,17.30
2019,03,19,19,46,17.30
2019,03,19,19,47,17.20
2019,03,19,19,48,17.20
2019,03,19,19,49,17.20
2019,03,19,19,50,17.20
2019,03,19,19,51,17.10
2019,03,19,19,52,17.10
2019,03,19,19,53,17.00
2019,03,19,19,54,16.90
2019,03,19,19,55,16.80
2019,03,19,19,56,16.70
2019,03,19,19,57,16.60
2019,03,19,19,58,16.60
2019,03,19,19,59,16.60
2019,03,19,20,00,16.60
2019,03,19,20,01,16.60
2019,03,19,20,02,16.60
2019,03,19,20,03,16.60
2019,03,19,20,04,16.60
2019,03,19,20,05,16.60
2019,03,19,20,06,16.60
2019,03,19,20,07,16.60
